| time (UTC) | temp F | wind direction | speed MPH | gust MPH | rain 1hr in | rain 24hr in | rain mn in | humidity % | barometer mb |
| 20260905115011 | 71 | 312 | 0.0 | 2.0 | 0.00 | 0.00 | 0.00 | 91 | 1015.7 |
| 20260905114522 | 71 | 333 | 0.0 | 2.0 | 0.00 | 0.00 | 0.00 | 91 | 1015.7 |
| 20260905114011 | 71 | 49 | 0.0 | 2.0 | 0.00 | 0.00 | 0.00 | 91 | 1015.7 |
| 20260905113512 | 71 | 31 | 0.0 | 3.0 | 0.00 | 0.00 | 0.00 | 91 | 1015.7 |
| 20260905113030 | 71 | 36 | 1.0 | 3.0 | 0.00 | 0.00 | 0.00 | 91 | 1015.6 |
| 20260905112516 | 71 | 28 | 0.0 | 1.0 | 0.00 | 0.00 | 0.00 | 91 | 1015.5 |
| 20260905112010 | 71 | 18 | 0.0 | 1.0 | 0.00 | 0.00 | 0.00 | 91 | 1015.5 |
| 20260905111542 | 71 | 18 | 0.0 | 1.0 | 0.00 | 0.00 | 0.00 | 91 | 1015.4 |
| 20260905111016 | 71 | 24 | 0.0 | 1.0 | 0.00 | 0.00 | 0.00 | 90 | 1015.5 |
| 20260905110519 | 71 | 24 | 0.0 | 3.0 | 0.00 | 0.00 | 0.00 | 90 | 1015.4 |
| 20260905110024 | 71 | 43 | 0.0 | 3.0 | 0.00 | 0.00 | 0.00 | 90 | 1015.5 |
| 20260905105516 | 71 | 5 | 0.0 | 1.0 | 0.00 | 0.00 | 0.00 | 90 | 1015.4 |
| 20260905105016 | 70 | 5 | 0.0 | 1.0 | 0.00 | 0.00 | 0.00 | 90 | 1015.4 |
| 20260905104517 | 70 | 5 | 0.0 | 1.0 | 0.00 | 0.00 | 0.00 | 90 | 1015.4 |
| 20260905104015 | 70 | 5 | 0.0 | 2.0 | 0.00 | 0.00 | 0.00 | 90 | 1015.4 |
| 20260905103514 | 70 | 5 | 0.0 | 2.0 | 0.00 | 0.00 | 0.00 | 90 | 1015.3 |
| 20260905103031 | 70 | 11 | 0.0 | 2.0 | 0.00 | 0.00 | 0.00 | 90 | 1015.4 |
| 20260905102512 | 70 | 360 | 0.0 | 2.0 | 0.00 | 0.00 | 0.00 | 90 | 1015.3 |
| 20260905102012 | 70 | 311 | 0.0 | 1.0 | 0.00 | 0.00 | 0.00 | 90 | 1015.5 |
| 20260905101529 | 70 | 311 | 0.0 | 3.0 | 0.00 | 0.00 | 0.00 | 90 | 1015.4 |
| 20260905101015 | 70 | 352 | 0.0 | 3.0 | 0.00 | 0.00 | 0.00 | 89 | 1015.1 |
| 20260905100515 | 70 | 19 | 0.0 | 2.0 | 0.00 | 0.00 | 0.00 | 89 | 1014.9 |
| 20260905100010 | 70 | 47 | 0.0 | 2.0 | 0.00 | 0.00 | 0.00 | 89 | 1014.8 |
| 20260905095506 | 70 | 314 | 0.0 | 3.0 | 0.00 | 0.00 | 0.00 | 89 | 1014.7 |
| 20260905095010 | 70 | 73 | 0.0 | 3.0 | 0.00 | 0.00 | 0.00 | 89 | 1014.7 |
| 20260905094503 | 70 | 352 | 0.0 | 1.0 | 0.00 | 0.00 | 0.00 | 89 | 1014.7 |
| 20260905094009 | 70 | 352 | 0.0 | 1.0 | 0.00 | 0.00 | 0.00 | 89 | 1014.6 |
| 20260905093511 | 70 | 11 | 0.0 | 1.0 | 0.00 | 0.00 | 0.00 | 88 | 1014.7 |
| 20260905093017 | 70 | 5 | 0.0 | 1.0 | 0.00 | 0.00 | 0.00 | 89 | 1014.7 |
| 20260905092505 | 70 | 16 | 0.0 | 1.0 | 0.00 | 0.00 | 0.00 | 88 | 1014.7 |
| 20260905092008 | 70 | 351 | 0.0 | 2.0 | 0.00 | 0.00 | 0.00 | 88 | 1014.7 |
| 20260905091525 | 70 | 5 | 0.0 | 3.0 | 0.00 | 0.00 | 0.00 | 88 | 1014.8 |
| 20260905091003 | 70 | 352 | 0.0 | 3.0 | 0.00 | 0.00 | 0.00 | 88 | 1014.9 |
| 20260905090503 | 70 | 5 | 0.0 | 2.0 | 0.00 | 0.00 | 0.00 | 88 | 1015.0 |
| 20260905090008 | 70 | 44 | 0.0 | 4.0 | 0.00 | 0.00 | 0.00 | 88 | 1015.0 |
| 20260905085504 | 70 | 69 | 1.0 | 5.0 | 0.00 | 0.00 | 0.00 | 88 | 1015.0 |
| 20260905085004 | 70 | 333 | 0.0 | 5.0 | 0.00 | 0.00 | 0.00 | 87 | 1015.1 |
| 20260905084509 | 70 | 350 | 1.0 | 4.0 | 0.00 | 0.00 | 0.00 | 87 | 1015.1 |
| 20260905084007 | 71 | 352 | 0.0 | 2.0 | 0.00 | 0.00 | 0.00 | 87 | 1015.2 |
| 20260905083507 | 71 | 352 | 0.0 | 3.0 | 0.00 | 0.00 | 0.00 | 87 | 1015.3 |
| 20260905083010 | 71 | 16 | 0.0 | 3.0 | 0.00 | 0.00 | 0.00 | 87 | 1015.2 |
| 20260905082510 | 71 | 352 | 0.0 | 3.0 | 0.00 | 0.00 | 0.00 | 87 | 1015.2 |
| 20260905082010 | 71 | 17 | 0.0 | 3.0 | 0.00 | 0.00 | 0.00 | 87 | 1015.1 |
| 20260905081509 | 71 | 32 | 0.0 | 5.0 | 0.00 | 0.00 | 0.00 | 87 | 1015.2 |
| 20260905081008 | 71 | 327 | 0.0 | 5.0 | 0.00 | 0.00 | 0.00 | 87 | 1015.2 |
| 20260905080511 | 71 | 339 | 1.0 | 4.0 | 0.00 | 0.00 | 0.00 | 87 | 1015.3 |
| 20260905080032 | 71 | 23 | 1.0 | 4.0 | 0.00 | 0.00 | 0.00 | 86 | 1015.3 |
| 20260905075507 | 72 | 352 | 1.0 | 4.0 | 0.00 | 0.00 | 0.00 | 86 | 1015.2 |
| 20260905075015 | 72 | 360 | 1.0 | 3.0 | 0.00 | 0.00 | 0.00 | 86 | 1015.2 |
| 20260905074507 | 72 | 32 | 0.0 | 3.0 | 0.00 | 0.00 | 0.00 | 86 | 1015.1 |
| 20260905074006 | 72 | 26 | 0.0 | 2.0 | 0.00 | 0.00 | 0.00 | 85 | 1015.1 |
| 20260905073506 | 72 | 5 | 0.0 | 1.0 | 0.00 | 0.00 | 0.00 | 85 | 1015.1 |
| 20260905073010 | 72 | 5 | 0.0 | 1.0 | 0.00 | 0.00 | 0.00 | 85 | 1015.1 |
| 20260905072508 | 72 | 5 | 0.0 | 3.0 | 0.00 | 0.00 | 0.00 | 85 | 1015.2 |
| 20260905072007 | 72 | 5 | 0.0 | 3.0 | 0.00 | 0.00 | 0.00 | 85 | 1015.1 |
| 20260905071519 | 73 | 5 | 1.0 | 3.0 | 0.00 | 0.00 | 0.00 | 85 | 1015.1 |
| 20260905071014 | 73 | 16 | 0.0 | 2.0 | 0.00 | 0.00 | 0.00 | 85 | 1015.1 |
| 20260905070504 | 73 | 352 | 0.0 | 3.0 | 0.00 | 0.00 | 0.00 | 85 | 1015.1 |
| 20260905070025 | 73 | 352 | 1.0 | 3.0 | 0.00 | 0.00 | 0.00 | 85 | 1015.1 |
| 20260905065512 | 73 | 5 | 0.0 | 2.0 | 0.00 | 0.00 | 0.00 | 85 | 1015.0 |
| 20260905065018 | 73 | 5 | 0.0 | 2.0 | 0.00 | 0.00 | 0.00 | 85 | 1015.0 |
| 20260905064534 | 73 | 5 | 0.0 | 3.0 | 0.00 | 0.00 | 0.00 | 85 | 1015.0 |
| 20260905064012 | 74 | 10 | 0.0 | 3.0 | 0.00 | 0.00 | 0.00 | 85 | 1015.0 |
| 20260905063512 | 74 | 19 | 0.0 | 3.0 | 0.00 | 0.00 | 0.00 | 85 | 1015.0 |
| 20260905063013 | 74 | 360 | 0.0 | 5.0 | 0.00 | 0.00 | 0.00 | 85 | 1015.0 |
| 20260905062509 | 74 | 38 | 1.0 | 5.0 | 0.00 | 0.00 | 0.00 | 85 | 1014.9 |
| 20260905062007 | 74 | 352 | 1.0 | 4.0 | 0.00 | 0.00 | 0.00 | 85 | 1014.8 |
| 20260905061514 | 74 | 335 | 0.0 | 4.0 | 0.00 | 0.00 | 0.00 | 85 | 1015.0 |
| 20260905061008 | 75 | 352 | 1.0 | 4.0 | 0.00 | 0.00 | 0.00 | 84 | 1015.0 |
| 20260905060509 | 75 | 14 | 1.0 | 4.0 | 0.00 | 0.00 | 0.00 | 84 | 1014.9 |
| 20260905060023 | 75 | 349 | 1.0 | 3.0 | 0.00 | 0.00 | 0.00 | 84 | 1015.0 |
| 20260905055512 | 75 | 26 | 0.0 | 4.0 | 0.00 | 0.00 | 0.00 | 84 | 1015.0 |
| 20260905055017 | 75 | 319 | 0.0 | 5.0 | 0.00 | 0.00 | 0.00 | 84 | 1014.9 |
| 20260905054534 | 75 | 344 | 1.0 | 5.0 | 0.00 | 0.00 | 0.00 | 84 | 1015.0 |
| 20260905054018 | 76 | 26 | 1.0 | 4.0 | 0.00 | 0.00 | 0.00 | 84 | 1014.9 |
| 20260905053506 | 76 | 11 | 0.0 | 4.0 | 0.00 | 0.00 | 0.00 | 84 | 1014.8 |
| 20260905053019 | 76 | 26 | 1.0 | 4.0 | 0.00 | 0.00 | 0.00 | 84 | 1014.7 |
| 20260905052513 | 76 | 17 | 1.0 | 3.0 | 0.00 | 0.00 | 0.00 | 84 | 1014.7 |
| 20260905052018 | 76 | 360 | 0.0 | 3.0 | 0.00 | 0.00 | 0.00 | 84 | 1014.6 |
| 20260905051525 | 76 | 25 | 0.0 | 3.0 | 0.00 | 0.00 | 0.00 | 84 | 1014.6 |
| 20260905051008 | 77 | 5 | 1.0 | 5.0 | 0.00 | 0.00 | 0.00 | 84 | 1014.5 |
| 20260905050510 | 77 | 9 | 1.0 | 5.0 | 0.00 | 0.00 | 0.00 | 83 | 1014.5 |
| 20260905050018 | 77 | 5 | 1.0 | 5.0 | 0.00 | 0.00 | 0.00 | 83 | 1014.5 |
| 20260905045511 | 77 | 31 | 1.0 | 4.0 | 0.00 | 0.00 | 0.00 | 83 | 1014.4 |
| 20260905045012 | 77 | 14 | 0.0 | 4.0 | 0.00 | 0.00 | 0.00 | 83 | 1014.5 |
| 20260905044525 | 77 | 34 | 1.0 | 4.0 | 0.00 | 0.00 | 0.00 | 83 | 1014.5 |
| 20260905044011 | 78 | 360 | 1.0 | 4.0 | 0.00 | 0.00 | 0.00 | 83 | 1014.6 |
| 20260905043515 | 78 | 360 | 0.0 | 4.0 | 0.00 | 0.00 | 0.00 | 83 | 1014.6 |
| 20260905043033 | 78 | 17 | 2.0 | 4.0 | 0.00 | 0.00 | 0.00 | 82 | 1014.6 |
| 20260905042516 | 78 | 24 | 1.0 | 4.0 | 0.00 | 0.00 | 0.00 | 82 | 1014.5 |
| 20260905042012 | 78 | 5 | 0.0 | 2.0 | 0.00 | 0.00 | 0.00 | 82 | 1014.6 |
| 20260905041530 | 79 | 5 | 0.0 | 0.0 | 0.00 | 0.00 | 0.00 | 81 | 1014.6 |
| 20260905041016 | 79 | 5 | 0.0 | 1.0 | 0.00 | 0.00 | 0.00 | 81 | 1014.6 |
| 20260905040508 | 79 | 5 | 0.0 | 2.0 | 0.00 | 0.00 | 0.00 | 81 | 1014.6 |
| 20260905040026 | 79 | 5 | 0.0 | 2.0 | 0.00 | 0.00 | 0.00 | 81 | 1014.5 |
| 20260905035515 | 79 | 22 | 0.0 | 2.0 | 0.00 | 0.00 | 0.00 | 81 | 1014.5 |
| 20260905035011 | 79 | 344 | 0.0 | 2.0 | 0.00 | 0.00 | 0.00 | 81 | 1014.6 |
| 20260905034519 | 80 | 344 | 0.0 | 1.0 | 0.00 | 0.00 | 0.00 | 81 | 1014.6 |
| 20260905034005 | 80 | 296 | 0.0 | 3.0 | 0.00 | 0.00 | 0.00 | 80 | 1014.6 |
| 20260905033503 | 80 | 325 | 0.0 | 4.0 | 0.00 | 0.00 | 0.00 | 80 | 1014.6 |
| 20260905033004 | 80 | 21 | 0.0 | 4.0 | 0.00 | 0.00 | 0.00 | 80 | 1014.5 |
| 20260905032502 | 80 | 9 | 0.0 | 2.0 | 0.00 | 0.00 | 0.00 | 80 | 1014.6 |
| 20260905032003 | 81 | 5 | 0.0 | 6.0 | 0.00 | 0.00 | 0.00 | 80 | 1014.6 |
| 20260905031507 | 81 | 346 | 0.0 | 7.0 | 0.00 | 0.00 | 0.00 | 80 | 1014.5 |
| 20260905031002 | 81 | 352 | 1.0 | 7.0 | 0.00 | 0.00 | 0.00 | 80 | 1014.5 |
| 20260905030502 | 81 | 5 | 1.0 | 8.0 | 0.00 | 0.00 | 0.00 | 80 | 1014.5 |
| 20260905030012 | 81 | 30 | 0.0 | 8.0 | 0.00 | 0.00 | 0.00 | 80 | 1014.6 |
| 20260905025503 | 82 | 17 | 0.0 | 7.0 | 0.00 | 0.00 | 0.00 | 80 | 1014.8 |
| 20260905025005 | 82 | 18 | 2.0 | 9.0 | 0.00 | 0.00 | 0.00 | 80 | 1014.7 |
| 20260905024510 | 82 | 335 | 2.0 | 9.0 | 0.00 | 0.00 | 0.00 | 80 | 1014.7 |
| 20260905024007 | 82 | 346 | 1.0 | 8.0 | 0.00 | 0.00 | 0.00 | 80 | 1014.6 |
| 20260905023503 | 82 | 352 | 1.0 | 8.0 | 0.00 | 0.00 | 0.00 | 80 | 1014.5 |
| 20260905023004 | 82 | 350 | 2.0 | 5.0 | 0.00 | 0.00 | 0.00 | 80 | 1014.5 |
| 20260905022506 | 83 | 13 | 2.0 | 5.0 | 0.00 | 0.00 | 0.00 | 79 | 1014.4 |
| 20260905022003 | 83 | 348 | 0.0 | 4.0 | 0.00 | 0.00 | 0.00 | 79 | 1014.4 |
| 20260905021504 | 83 | 348 | 0.0 | 4.0 | 0.00 | 0.00 | 0.00 | 79 | 1014.3 |
| 20260905021004 | 83 | 23 | 1.0 | 5.0 | 0.00 | 0.00 | 0.00 | 78 | 1014.2 |
| 20260905020502 | 83 | 16 | 2.0 | 5.0 | 0.00 | 0.00 | 0.00 | 78 | 1014.1 |
| 20260905020013 | 83 | 9 | 1.0 | 4.0 | 0.00 | 0.00 | 0.00 | 78 | 1014.0 |
| 20260905015504 | 84 | 331 | 0.0 | 4.0 | 0.00 | 0.00 | 0.00 | 78 | 1013.9 |
| 20260905015007 | 84 | 323 | 0.0 | 4.0 | 0.00 | 0.00 | 0.00 | 77 | 1013.8 |
| 20260905014511 | 84 | 34 | 2.0 | 5.0 | 0.00 | 0.00 | 0.00 | 77 | 1013.8 |
| 20260905014010 | 84 | 5 | 2.0 | 5.0 | 0.00 | 0.00 | 0.00 | 77 | 1013.8 |
| 20260905013507 | 84 | 333 | 2.0 | 5.0 | 0.00 | 0.00 | 0.00 | 77 | 1013.7 |
| 20260905013013 | 85 | 329 | 1.0 | 4.0 | 0.00 | 0.00 | 0.00 | 77 | 1013.6 |
| 20260905012510 | 85 | 9 | 0.0 | 6.0 | 0.00 | 0.00 | 0.00 | 77 | 1013.5 |
| 20260905012004 | 85 | 5 | 2.0 | 7.0 | 0.00 | 0.00 | 0.00 | 77 | 1013.5 |
| 20260905011512 | 85 | 35 | 3.0 | 7.0 | 0.00 | 0.00 | 0.00 | 77 | 1013.4 |
| 20260905011008 | 85 | 352 | 0.0 | 5.0 | 0.00 | 0.00 | 0.00 | 77 | 1013.4 |
| 20260905010503 | 85 | 19 | 1.0 | 3.0 | 0.00 | 0.00 | 0.00 | 77 | 1013.3 |
| 20260905010007 | 85 | 352 | 0.0 | 6.0 | 0.00 | 0.00 | 0.00 | 77 | 1013.2 |
| 20260905005505 | 85 | 334 | 0.0 | 6.0 | 0.00 | 0.00 | 0.00 | 77 | 1013.2 |
| 20260905005006 | 86 | 352 | 1.0 | 8.0 | 0.00 | 0.00 | 0.00 | 77 | 1013.1 |
| 20260905004512 | 86 | 5 | 2.0 | 8.0 | 0.00 | 0.00 | 0.00 | 76 | 1013.2 |
| 20260905004007 | 86 | 5 | 2.0 | 4.0 | 0.00 | 0.00 | 0.00 | 75 | 1013.2 |
| 20260905003513 | 86 | 338 | 0.0 | 3.0 | 0.00 | 0.00 | 0.00 | 74 | 1013.1 |
| 20260905003015 | 87 | 340 | 0.0 | 4.0 | 0.00 | 0.00 | 0.00 | 72 | 1013.1 |
| 20260905002504 | 87 | 240 | 0.0 | 4.0 | 0.00 | 0.00 | 0.00 | 72 | 1012.9 |
| 20260905002008 | 87 | 188 | 0.0 | 7.0 | 0.00 | 0.00 | 0.00 | 72 | 1012.9 |
| 20260905001515 | 87 | 237 | 1.0 | 7.0 | 0.00 | 0.00 | 0.00 | 72 | 1012.8 |
| 20260905001008 | 87 | 246 | 2.0 | 7.0 | 0.00 | 0.00 | 0.00 | 71 | 1012.8 |
| 20260905000505 | 88 | 204 | 1.0 | 5.0 | 0.00 | 0.00 | 0.00 | 71 | 1012.7 |
| 20260905000014 | 88 | 249 | 1.0 | 7.0 | 0.00 | 0.00 | 0.00 | 70 | 1012.7 |
| 20260904235511 | 88 | 252 | 2.0 | 7.0 | 0.00 | 0.00 | 0.00 | 70 | 1012.8 |
| 20260904235012 | 88 | 227 | 1.0 | 7.0 | 0.00 | 0.00 | 0.00 | 69 | 1012.8 |
| 20260904234516 | 88 | 198 | 3.0 | 7.0 | 0.00 | 0.00 | 0.00 | 69 | 1012.8 |
| 20260904234009 | 88 | 198 | 1.0 | 5.0 | 0.00 | 0.00 | 0.00 | 69 | 1012.8 |
| 20260904233511 | 89 | 186 | 0.0 | 5.0 | 0.00 | 0.00 | 0.00 | 69 | 1012.8 |
| 20260904233014 | 89 | 171 | 0.0 | 7.0 | 0.00 | 0.00 | 0.00 | 69 | 1012.8 |
| 20260904232510 | 89 | 211 | 1.0 | 7.0 | 0.00 | 0.00 | 0.00 | 68 | 1012.8 |
| 20260904232009 | 89 | 188 | 1.0 | 7.0 | 0.00 | 0.00 | 0.00 | 68 | 1012.8 |
| 20260904231516 | 90 | 230 | 0.0 | 6.0 | 0.00 | 0.00 | 0.00 | 67 | 1012.7 |
| 20260904231012 | 90 | 248 | 1.0 | 7.0 | 0.00 | 0.00 | 0.00 | 67 | 1012.7 |
| 20260904230510 | 90 | 232 | 0.0 | 7.0 | 0.00 | 0.00 | 0.00 | 66 | 1012.7 |
| 20260904230020 | 90 | 227 | 1.0 | 4.0 | 0.00 | 0.00 | 0.00 | 65 | 1012.7 |
| 20260904225511 | 90 | 225 | 1.0 | 5.0 | 0.00 | 0.00 | 0.00 | 64 | 1012.6 |
| 20260904225011 | 91 | 245 | 2.0 | 7.0 | 0.00 | 0.00 | 0.00 | 64 | 1012.5 |
| 20260904224517 | 91 | 258 | 2.0 | 7.0 | 0.00 | 0.00 | 0.00 | 64 | 1012.5 |
| 20260904224013 | 91 | 168 | 0.0 | 6.0 | 0.00 | 0.00 | 0.00 | 62 | 1012.4 |
| 20260904223511 | 91 | 244 | 2.0 | 7.0 | 0.00 | 0.00 | 0.00 | 61 | 1012.4 |
| 20260904223020 | 92 | 182 | 3.0 | 7.0 | 0.00 | 0.00 | 0.00 | 61 | 1012.3 |
| 20260904222512 | 92 | 254 | 1.0 | 5.0 | 0.00 | 0.00 | 0.00 | 62 | 1012.2 |
| 20260904222010 | 92 | 215 | 1.0 | 5.0 | 0.00 | 0.00 | 0.00 | 62 | 1012.2 |
| 20260904221538 | 92 | 141 | 1.0 | 5.0 | 0.00 | 0.00 | 0.00 | 62 | 1012.2 |
| 20260904221012 | 92 | 111 | 1.0 | 4.0 | 0.00 | 0.00 | 0.00 | 61 | 1012.2 |
| 20260904220512 | 92 | 154 | 0.0 | 6.0 | 0.00 | 0.00 | 0.00 | 61 | 1012.2 |
| 20260904220020 | 92 | 240 | 1.0 | 7.0 | 0.00 | 0.00 | 0.00 | 62 | 1012.1 |
| 20260904215511 | 92 | 218 | 2.0 | 8.0 | 0.00 | 0.00 | 0.00 | 63 | 1012.1 |
| 20260904215011 | 93 | 204 | 1.0 | 8.0 | 0.00 | 0.00 | 0.00 | 62 | 1012.1 |
| 20260904214520 | 93 | 261 | 1.0 | 9.0 | 0.00 | 0.00 | 0.00 | 61 | 1012.1 |
| 20260904214014 | 93 | 129 | 2.0 | 9.0 | 0.00 | 0.00 | 0.00 | 61 | 1012.1 |
| 20260904213515 | 93 | 241 | 3.0 | 7.0 | 0.00 | 0.00 | 0.00 | 60 | 1012.1 |
| 20260904213023 | 93 | 269 | 3.0 | 7.0 | 0.00 | 0.00 | 0.00 | 61 | 1012.1 |
| 20260904212512 | 94 | 245 | 2.0 | 7.0 | 0.00 | 0.00 | 0.00 | 61 | 1012.2 |
| 20260904212014 | 93 | 200 | 2.0 | 7.0 | 0.00 | 0.00 | 0.00 | 61 | 1012.2 |
| 20260904211530 | 94 | 224 | 1.0 | 7.0 | 0.00 | 0.00 | 0.00 | 60 | 1012.2 |
| 20260904211013 | 94 | 229 | 1.0 | 7.0 | 0.00 | 0.00 | 0.00 | 60 | 1012.2 |
| 20260904210515 | 94 | 275 | 1.0 | 7.0 | 0.00 | 0.00 | 0.00 | 60 | 1012.1 |
| 20260904210018 | 94 | 178 | 2.0 | 6.0 | 0.00 | 0.00 | 0.00 | 59 | 1012.1 |
| 20260904205506 | 94 | 247 | 1.0 | 6.0 | 0.00 | 0.00 | 0.00 | 60 | 1012.1 |
| 20260904205007 | 94 | 144 | 2.0 | 5.0 | 0.00 | 0.00 | 0.00 | 59 | 1012.1 |
| 20260904204520 | 94 | 210 | 1.0 | 7.0 | 0.00 | 0.00 | 0.00 | 60 | 1012.0 |
| 20260904204015 | 94 | 155 | 1.0 | 7.0 | 0.00 | 0.00 | 0.00 | 59 | 1012.0 |
| 20260904203503 | 95 | 233 | 0.0 | 6.0 | 0.00 | 0.00 | 0.00 | 60 | 1012.1 |
| 20260904203023 | 94 | 179 | 2.0 | 4.0 | 0.00 | 0.00 | 0.00 | 59 | 1012.1 |
| 20260904202503 | 94 | 190 | 1.0 | 6.0 | 0.00 | 0.00 | 0.00 | 59 | 1012.2 |
| 20260904202003 | 94 | 212 | 0.0 | 6.0 | 0.00 | 0.00 | 0.00 | 60 | 1012.1 |
| 20260904201509 | 94 | 194 | 1.0 | 5.0 | 0.00 | 0.00 | 0.00 | 58 | 1012.1 |
| 20260904201007 | 95 | 113 | 1.0 | 4.0 | 0.00 | 0.00 | 0.00 | 59 | 1012.1 |
| 20260904200507 | 95 | 211 | 1.0 | 4.0 | 0.00 | 0.00 | 0.00 | 58 | 1012.2 |
| 20260904200008 | 94 | 131 | 1.0 | 3.0 | 0.00 | 0.00 | 0.00 | 58 | 1012.1 |
| 20260904195508 | 95 | 140 | 1.0 | 7.0 | 0.00 | 0.00 | 0.00 | 59 | 1012.1 |
| 20260904195009 | 95 | 183 | 1.0 | 7.0 | 0.00 | 0.00 | 0.00 | 61 | 1012.1 |
| 20260904194507 | 95 | 175 | 0.0 | 5.0 | 0.00 | 0.00 | 0.00 | 58 | 1012.1 |
| 20260904194007 | 95 | 226 | 1.0 | 6.0 | 0.00 | 0.00 | 0.00 | 58 | 1012.1 |
| 20260904193512 | 95 | 235 | 1.0 | 7.0 | 0.00 | 0.00 | 0.00 | 60 | 1012.0 |
| 20260904193036 | 95 | 198 | 2.0 | 7.0 | 0.00 | 0.00 | 0.00 | 57 | 1012.1 |
| 20260904192503 | 94 | 151 | 1.0 | 6.0 | 0.00 | 0.00 | 0.00 | 61 | 1012.0 |
| 20260904192010 | 94 | 228 | 2.0 | 6.0 | 0.00 | 0.00 | 0.00 | 59 | 1012.0 |
| 20260904191524 | 94 | 167 | 1.0 | 7.0 | 0.00 | 0.00 | 0.00 | 59 | 1012.0 |
| 20260904191004 | 94 | 138 | 2.0 | 7.0 | 0.00 | 0.00 | 0.00 | 59 | 1012.1 |
| 20260904190506 | 95 | 101 | 1.0 | 4.0 | 0.00 | 0.00 | 0.00 | 60 | 1012.1 |
| 20260904190009 | 94 | 131 | 0.0 | 7.0 | 0.00 | 0.00 | 0.00 | 60 | 1012.1 |
| 20260904185505 | 94 | 142 | 1.0 | 7.0 | 0.00 | 0.00 | 0.00 | 60 | 1012.0 |
| 20260904185005 | 94 | 220 | 2.0 | 6.0 | 0.00 | 0.00 | 0.00 | 61 | 1012.0 |
| 20260904184515 | 94 | 126 | 1.0 | 8.0 | 0.00 | 0.00 | 0.00 | 61 | 1012.0 |
| 20260904184010 | 94 | 263 | 3.0 | 8.0 | 0.00 | 0.00 | 0.00 | 60 | 1012.0 |
| 20260904183512 | 94 | 159 | 1.0 | 3.0 | 0.00 | 0.00 | 0.00 | 58 | 1012.0 |
| 20260904183012 | 94 | 203 | 0.0 | 8.0 | 0.00 | 0.00 | 0.00 | 59 | 1012.1 |
| 20260904182512 | 94 | 219 | 2.0 | 8.0 | 0.00 | 0.00 | 0.00 | 59 | 1012.1 |
| 20260904182017 | 93 | 243 | 0.0 | 7.0 | 0.00 | 0.00 | 0.00 | 61 | 1012.1 |
| 20260904181508 | 93 | 83 | 2.0 | 7.0 | 0.00 | 0.00 | 0.00 | 61 | 1012.1 |
| 20260904181010 | 93 | 157 | 1.0 | 8.0 | 0.00 | 0.00 | 0.00 | 60 | 1012.1 |
| 20260904180515 | 93 | 240 | 1.0 | 8.0 | 0.00 | 0.00 | 0.00 | 65 | 1012.1 |
| 20260904180029 | 93 | 118 | 0.0 | 4.0 | 0.00 | 0.00 | 0.00 | 61 | 1012.1 |
| 20260904175507 | 93 | 157 | 0.0 | 8.0 | 0.00 | 0.00 | 0.00 | 60 | 1012.1 |
| 20260904175007 | 93 | 138 | 1.0 | 8.0 | 0.00 | 0.00 | 0.00 | 61 | 1012.1 |
| 20260904174511 | 93 | 138 | 1.0 | 6.0 | 0.00 | 0.00 | 0.00 | 61 | 1012.1 |
| 20260904174006 | 93 | 292 | 1.0 | 4.0 | 0.00 | 0.00 | 0.00 | 62 | 1012.1 |
| 20260904173510 | 92 | 131 | 2.0 | 4.0 | 0.00 | 0.00 | 0.00 | 61 | 1012.1 |
| 20260904173026 | 92 | 139 | 1.0 | 7.0 | 0.00 | 0.00 | 0.00 | 62 | 1012.1 |
| 20260904172512 | 92 | 128 | 1.0 | 7.0 | 0.00 | 0.00 | 0.00 | 62 | 1012.1 |
| 20260904172011 | 92 | 139 | 2.0 | 7.0 | 0.00 | 0.00 | 0.00 | 61 | 1012.1 |
| 20260904171525 | 92 | 144 | 1.0 | 4.0 | 0.00 | 0.00 | 0.00 | 62 | 1012.2 |
| 20260904171013 | 92 | 157 | 0.0 | 3.0 | 0.00 | 0.00 | 0.00 | 65 | 1012.1 |
| 20260904170514 | 91 | 109 | 1.0 | 6.0 | 0.00 | 0.00 | 0.00 | 65 | 1012.2 |
| 20260904170017 | 91 | 91 | 1.0 | 6.0 | 0.00 | 0.00 | 0.00 | 62 | 1012.2 |
| 20260904165515 | 92 | 127 | 1.0 | 7.0 | 0.00 | 0.00 | 0.00 | 65 | 1012.2 |
| 20260904165016 | 91 | 145 | 3.0 | 7.0 | 0.00 | 0.00 | 0.00 | 62 | 1012.1 |
| 20260904164510 | 90 | 105 | 1.0 | 5.0 | 0.00 | 0.00 | 0.00 | 64 | 1012.1 |
| 20260904164017 | 90 | 121 | 1.0 | 5.0 | 0.00 | 0.00 | 0.00 | 64 | 1012.1 |
| 20260904163515 | 90 | 109 | 0.0 | 3.0 | 0.00 | 0.00 | 0.00 | 64 | 1012.0 |
| 20260904163015 | 89 | 153 | 0.0 | 5.0 | 0.00 | 0.00 | 0.00 | 62 | 1012.0 |
| 20260904162510 | 90 | 193 | 2.0 | 5.0 | 0.00 | 0.00 | 0.00 | 64 | 1012.1 |
| 20260904162012 | 90 | 142 | 0.0 | 4.0 | 0.00 | 0.00 | 0.00 | 64 | 1012.1 |
| 20260904161517 | 90 | 138 | 1.0 | 3.0 | 0.00 | 0.00 | 0.00 | 65 | 1012.2 |
| 20260904161009 | 89 | 43 | 0.0 | 2.0 | 0.00 | 0.00 | 0.00 | 64 | 1012.2 |
| 20260904160514 | 89 | 293 | 0.0 | 2.0 | 0.00 | 0.00 | 0.00 | 65 | 1012.1 |
| 20260904160028 | 89 | 103 | 0.0 | 2.0 | 0.00 | 0.00 | 0.00 | 67 | 1012.1 |
| 20260904155515 | 88 | 317 | 0.0 | 4.0 | 0.00 | 0.00 | 0.00 | 66 | 1012.1 |
| 20260904155009 | 88 | 349 | 1.0 | 4.0 | 0.00 | 0.00 | 0.00 | 66 | 1012.1 |
| 20260904154527 | 87 | 177 | 0.0 | 2.0 | 0.00 | 0.00 | 0.00 | 66 | 1012.2 |
| 20260904154015 | 87 | 177 | 0.0 | 2.0 | 0.00 | 0.00 | 0.00 | 66 | 1012.2 |
| 20260904153517 | 87 | 175 | 0.0 | 2.0 | 0.00 | 0.00 | 0.00 | 67 | 1012.3 |
| 20260904153026 | 87 | 333 | 0.0 | 2.0 | 0.00 | 0.00 | 0.00 | 66 | 1012.2 |
| 20260904152515 | 86 | 5 | 0.0 | 2.0 | 0.00 | 0.00 | 0.00 | 68 | 1012.1 |
| 20260904152017 | 86 | 5 | 0.0 | 3.0 | 0.00 | 0.00 | 0.00 | 69 | 1012.2 |
| 20260904151531 | 85 | 209 | 0.0 | 3.0 | 0.00 | 0.00 | 0.00 | 69 | 1012.1 |
| 20260904151011 | 85 | 352 | 0.0 | 2.0 | 0.00 | 0.00 | 0.00 | 68 | 1012.1 |
| 20260904150513 | 85 | 128 | 0.0 | 3.0 | 0.00 | 0.00 | 0.00 | 70 | 1012.1 |
| 20260904150003 | 84 | 289 | 0.0 | 3.0 | 0.00 | 0.00 | 0.00 | 72 | 1012.1 |
| 20260904145503 | 84 | 326 | 0.0 | 4.0 | 0.00 | 0.00 | 0.00 | 71 | 1012.2 |
| 20260904145003 | 83 | 247 | 1.0 | 4.0 | 0.00 | 0.00 | 0.00 | 72 | 1012.2 |
| 20260904144503 | 83 | 260 | 1.0 | 6.0 | 0.00 | 0.00 | 0.00 | 73 | 1012.2 |
| 20260904144002 | 82 | 178 | 2.0 | 5.0 | 0.00 | 0.00 | 0.00 | 73 | 1012.2 |
| 20260904143503 | 82 | 235 | 1.0 | 4.0 | 0.00 | 0.00 | 0.00 | 75 | 1012.1 |
| 20260904143006 | 81 | 251 | 1.0 | 5.0 | 0.00 | 0.00 | 0.00 | 75 | 1012.1 |
| 20260904142503 | 81 | 257 | 1.0 | 5.0 | 0.00 | 0.00 | 0.00 | 76 | 1012.0 |
| 20260904142007 | 80 | 243 | 1.0 | 5.0 | 0.00 | 0.01 | 0.00 | 76 | 1012.0 |
| 20260904141503 | 80 | 262 | 0.0 | 6.0 | 0.00 | 0.01 | 0.00 | 77 | 1012.1 |
| 20260904141010 | 80 | 241 | 1.0 | 6.0 | 0.00 | 0.01 | 0.00 | 78 | 1012.0 |
| 20260904140512 | 79 | 152 | 1.0 | 7.0 | 0.00 | 0.01 | 0.00 | 78 | 1011.9 |
| 20260904140003 | 79 | 152 | 3.0 | 7.0 | 0.00 | 0.01 | 0.00 | 79 | 1011.8 |
| 20260904135505 | 78 | 192 | 0.0 | 5.0 | 0.00 | 0.01 | 0.00 | 80 | 1011.9 |
| 20260904135008 | 78 | 248 | 2.0 | 6.0 | 0.00 | 0.01 | 0.00 | 81 | 1011.8 |
| 20260904134522 | 77 | 181 | 0.0 | 6.0 | 0.00 | 0.01 | 0.00 | 81 | 1011.8 |
| 20260904134003 | 77 | 231 | 1.0 | 4.0 | 0.00 | 0.01 | 0.00 | 83 | 1011.8 |
| 20260904133504 | 76 | 249 | 1.0 | 4.0 | 0.00 | 0.01 | 0.00 | 84 | 1011.8 |
| 20260904133003 | 76 | 221 | 0.0 | 5.0 | 0.00 | 0.01 | 0.00 | 84 | 1011.8 |
| 20260904132504 | 75 | 227 | 1.0 | 7.0 | 0.00 | 0.01 | 0.00 | 84 | 1011.9 |
| 20260904132007 | 75 | 146 | 2.0 | 7.0 | 0.00 | 0.01 | 0.00 | 85 | 1011.9 |
| 20260904131511 | 75 | 248 | 3.0 | 7.0 | 0.00 | 0.01 | 0.00 | 85 | 1011.9 |
| 20260904131005 | 75 | 244 | 1.0 | 6.0 | 0.00 | 0.01 | 0.00 | 85 | 1011.9 |
| 20260904130503 | 75 | 232 | 1.0 | 6.0 | 0.00 | 0.01 | 0.00 | 86 | 1011.8 |
| 20260904130008 | 74 | 228 | 1.0 | 4.0 | 0.00 | 0.01 | 0.00 | 86 | 1011.8 |
| 20260904125512 | 74 | 209 | 0.0 | 4.0 | 0.00 | 0.01 | 0.00 | 86 | 1011.7 |
| 20260904125012 | 74 | 275 | 0.0 | 4.0 | 0.00 | 0.01 | 0.00 | 87 | 1011.6 |
| 20260904124508 | 74 | 263 | 1.0 | 3.0 | 0.00 | 0.01 | 0.00 | 87 | 1011.4 |
| 20260904124007 | 74 | 225 | 0.0 | 2.0 | 0.00 | 0.01 | 0.00 | 88 | 1011.4 |
| 20260904123517 | 73 | 200 | 0.0 | 2.0 | 0.00 | 0.01 | 0.00 | 88 | 1011.4 |
| 20260904123005 | 73 | 276 | 0.0 | 2.0 | 0.00 | 0.01 | 0.00 | 88 | 1011.3 |
| 20260904122506 | 73 | 244 | 0.0 | 2.0 | 0.00 | 0.01 | 0.00 | 88 | 1011.3 |
| 20260904122007 | 73 | 198 | 0.0 | 2.0 | 0.00 | 0.01 | 0.00 | 88 | 1011.3 |
| 20260904121503 | 73 | 232 | 0.0 | 1.0 | 0.00 | 0.01 | 0.00 | 88 | 1011.2 |
| 20260904121002 | 73 | 232 | 0.0 | 1.0 | 0.00 | 0.01 | 0.00 | 88 | 1011.2 |
| 20260904120507 | 73 | 232 | 0.0 | 2.0 | 0.00 | 0.01 | 0.00 | 88 | 1011.3 |
| 20260904120013 | 73 | 259 | 0.0 | 2.0 | 0.00 | 0.01 | 0.00 | 88 | 1011.3 |
| 20260904115509 | 73 | 250 | 0.0 | 1.0 | 0.00 | 0.02 | 0.00 | 88 | 1011.3 |